This is the latest recevied weather packets stored in our database for station/object WA6GRA. If no packets are shown the sender has not sent any weather packets the latest 10 day(s).
| Time | Temp. | Humidity | Pressure | Rain* | Wind** | Luminosity | Snow |
|---|---|---|---|---|---|---|---|
| 1777943912 | 16.11° C | 65% | 1013.3 hPa | 0 mm | - | 48 W/m² | - |
| 1777943311 | 16.11° C | 65% | 1013.3 hPa | 0 mm | - | 52 W/m² | - |
| 1777942709 | 16.11° C | 66% | 1013.7 hPa | 0 mm | - | 62 W/m² | - |
| 1777942104 | 16.67° C | 66% | 1013.7 hPa | 0 mm | - | 78 W/m² | - |
| 1777941503 | 16.67° C | 65% | 1013.8 hPa | 0 mm | - | 91 W/m² | - |
| 1777940902 | 16.67° C | 64% | 1013.8 hPa | 0 mm | - | 117 W/m² | - |
| 1777940298 | 16.67° C | 65% | 1013.7 hPa | 0 mm | - | 137 W/m² | - |
| 1777939697 | 16.67° C | 63% | 1013.7 hPa | 0 mm | - | 131 W/m² | - |
| 1777939097 | 16.67° C | 63% | 1013.7 hPa | 0 mm | - | 101 W/m² | - |
| 1777938497 | 16.11° C | 64% | 1013.7 hPa | 0 mm | - | 109 W/m² | - |
| 1777937896 | 16.11° C | 65% | 1013.7 hPa | 0 mm | - | 118 W/m² | - |
| 1777937295 | 16.11° C | 64% | 1014 hPa | 0 mm | - | 110 W/m² | - |
| 1777936695 | 16.11° C | 63% | 1014.1 hPa | 0 mm | - | 101 W/m² | - |
| 1777936093 | 16.11° C | 64% | 1014.3 hPa | 0 mm | - | 112 W/m² | - |
| 1777935490 | 16.11° C | 64% | 1014.4 hPa | 0 mm | - | 136 W/m² | - |
| 1777934889 | 16.11° C | 64% | 1014.5 hPa | 0 mm | - | 151 W/m² | - |
| 1777934288 | 16.11° C | 63% | 1014.5 hPa | 0 mm | - | 162 W/m² | - |
| 1777933687 | 16.11° C | 64% | 1014.6 hPa | 0 mm | - | 172 W/m² | - |
| 1777933081 | 16.11° C | 65% | 1014.7 hPa | 0 mm | - | 168 W/m² | - |
| 1777932481 | 16.11° C | 65% | 1014.9 hPa | 0 mm | - | 216 W/m² | - |
| 1777931875 | 15.56° C | 67% | 1015 hPa | 0 mm | - | 202 W/m² | - |
| 1777931273 | 15.56° C | 66% | 1015 hPa | 0 mm | - | 287 W/m² | - |
| 1777930673 | 16.11° C | 65% | 1015.3 hPa | 0 mm | - | 290 W/m² | - |
| 1777930072 | 15.56° C | 68% | 1015.3 hPa | 0 mm | - | 276 W/m² | - |
| 1777929472 | 15.56° C | 67% | 1015.4 hPa | 0 mm | - | 228 W/m² | - |
* Rain latest hour (hover to see other rain measurements)
** Current wind speed in m/s (hover to see current wind gust speed)